TimeEST,TemperatureF,Dew PointF,Humidity,Sea Level PressureIn,VisibilityMPH,Wind Direction,Wind SpeedMPH,Gust SpeedMPH,PrecipitationIn,Events,Conditions,WindDirDegrees,DateUTC
12:56 AM,50.0,25.0,38,30.41,10.0,NE,10.4,-,N/A,,Overcast,40,2012-11-18 05:56:00
1:56 AM,48.9,27.0,43,30.40,10.0,NE,12.7,19.6,N/A,,Overcast,40,2012-11-18 06:56:00
2:56 AM,48.0,28.0,46,30.39,10.0,NNE,12.7,-,N/A,,Overcast,30,2012-11-18 07:56:00
3:56 AM,48.0,28.0,46,30.40,10.0,NNE,13.8,19.6,N/A,,Overcast,30,2012-11-18 08:56:00
4:56 AM,46.9,30.0,52,30.41,10.0,NE,9.2,18.4,N/A,,Overcast,40,2012-11-18 09:56:00
5:29 AM,46.4,30.2,53,30.42,10.0,NE,12.7,-,N/A,,Overcast,40,2012-11-18 10:29:00
5:56 AM,46.9,32.0,56,30.43,10.0,NNE,11.5,20.7,N/A,,Overcast,30,2012-11-18 10:56:00
6:56 AM,46.0,33.1,61,30.42,10.0,NNE,8.1,19.6,N/A,,Mostly Cloudy,30,2012-11-18 11:56:00
7:56 AM,45.0,34.0,65,30.42,10.0,North,6.9,-,N/A,,Scattered Clouds,10,2012-11-18 12:56:00
8:56 AM,50.0,36.0,59,30.43,10.0,NNE,15.0,18.4,N/A,,Clear,20,2012-11-18 13:56:00
9:25 AM,51.8,37.4,58,30.43,10.0,NE,15.0,20.7,N/A,,Mostly Cloudy,40,2012-11-18 14:25:00
9:56 AM,52.0,37.0,57,30.43,10.0,NNE,12.7,19.6,N/A,,Overcast,30,2012-11-18 14:56:00
10:56 AM,54.0,39.0,57,30.42,10.0,NNE,12.7,18.4,N/A,,Mostly Cloudy,30,2012-11-18 15:56:00
11:05 AM,55.4,39.2,54,30.41,10.0,NE,10.4,-,N/A,,Mostly Cloudy,40,2012-11-18 16:05:00
11:56 AM,57.9,39.9,51,30.38,10.0,North,12.7,18.4,N/A,,Mostly Cloudy,360,2012-11-18 16:56:00
12:56 PM,60.1,42.1,51,30.35,10.0,NNE,9.2,19.6,N/A,,Mostly Cloudy,30,2012-11-18 17:56:00
1:56 PM,61.0,42.1,50,30.33,10.0,NNE,9.2,-,N/A,,Overcast,30,2012-11-18 18:56:00
2:56 PM,61.0,41.0,48,30.32,10.0,North,9.2,-,N/A,,Mostly Cloudy,10,2012-11-18 19:56:00
3:56 PM,62.1,42.1,48,30.33,10.0,NE,11.5,-,N/A,,Clear,50,2012-11-18 20:56:00
4:56 PM,60.1,42.1,51,30.33,10.0,NNE,11.5,-,N/A,,Clear,30,2012-11-18 21:56:00
5:56 PM,57.0,42.1,57,30.33,10.0,NNE,10.4,-,N/A,,Clear,20,2012-11-18 22:56:00
6:56 PM,54.0,41.0,62,30.34,10.0,North,8.1,-,N/A,,Clear,10,2012-11-18 23:56:00
7:56 PM,55.0,41.0,59,30.34,10.0,NNE,10.4,-,N/A,,Overcast,20,2012-11-19 00:56:00
8:56 PM,55.9,39.9,55,30.35,10.0,NNE,10.4,19.6,N/A,,Overcast,20,2012-11-19 01:56:00
9:56 PM,55.0,41.0,59,30.35,10.0,NNE,10.4,-,N/A,,Overcast,20,2012-11-19 02:56:00
10:56 PM,55.0,39.9,57,30.33,10.0,NNE,12.7,21.9,N/A,,Overcast,30,2012-11-19 03:56:00
11:56 PM,54.0,39.9,59,30.34,10.0,NNE,9.2,-,N/A,,Overcast,30,2012-11-19 04:56:00